SPACEBEE-92 (48932 NORAD) Tracking and Keplerian Element Data

This shows tracking and keplerian element data for the satellite.

Feedback or suggestion? Click here.




ElementValue
Catalog48932
NameSPACEBEE-92
Epoch Orbit1681
Epoch Day287.9055709
Epoch Year2021
RAAN55.3628
Inclination97.5208
Eccentricity0.0016858
Argument of Perigee228.7416
Mean Anonmoly131.2365
Mean Motion15.14987741
Decay Rate8.343E-05
L11 48932U 21059BF 21287.90557090 .00008343 00000-0 44885-3 0 9998
L22 48932 97.5208 55.3628 0016858 228.7416 131.2365 15.14987741 16810

Live tracking and technical data element details for SPACEBEE-92 (NORAD 48932). SPACEBEE-92 can be tracked NOW for your location showing map with azimuth and elevation plus other details from your city location.

Track the satellite on the map from your city or location and see movement details for azimuth, elevation, latitude, longitude, range, height, and movement on the map or in text.







IsCatalogInMostPopularTable: catalog: 48932, numindb: 23
Update: records affected: 1



GetName: 48932 SPACEBEE-92

Hit Count: updated at: Tue, 19 Oct 2021 08:19:05 GMT